Regional Weather Roundup
Issued by NWS

Home | Current Version | Previous Version | Text Only | Print | Product List | Glossary Off
Versions: 1 2 3 4 5 6 7 8 9 10 11 12 13 14 15 16 17 18 19 20 21 22 23 24 25 26 27

000
ASUS45 KPSR 060610
RWRAZ

ARIZONA HOURLY REGIONAL WEATHER ROUNDUP
NATIONAL WEATHER SERVICE PHOENIX AZ
1100 PM MST MON DEC 05 2016

NOTE: FAIR INDICATES FEW OR NO CLOUDS BELOW 12,000 FEET WITH NO
SIGNIFICANT WEATHER AND/OR OBSTRUCTIONS TO VISIBILITY.

AZZ001>003-036-060700-
NORTHWEST ARIZONA

CITY           SKY/WX    TMP DP  RH WIND       PRES   REMARKS
BULLHEAD CITY  MOCLDY    54  23  30 CALM      29.90R
KINGMAN        CLOUDY    46  12  25 S8        29.93R
6HR MIN TEMP:  43; 6HR MAX TEMP:  53;

$$

AZZ004>008-015-016-018-060700-
NORTH CENTRAL ARIZONA

CITY           SKY/WX    TMP DP  RH WIND       PRES   REMARKS
GRAND CANYON   CLOUDY    28  23  81 CALM      29.96S
6HR MIN TEMP:  27; 6HR MAX TEMP:  42;

PRESCOTT       CLOUDY    38  22  52 CALM      29.96S
6HR MIN TEMP:  37; 6HR MAX TEMP:  50;

FLAGSTAFF      CLOUDY    32  17  54 S6        29.98S WCI  26
6HR MIN TEMP:  28; 6HR MAX TEMP:  39;

PAYSON         MOCLDY    37  21  52 CALM      30.01S
PAGE           CLOUDY    44   8  23 E5        29.87R
6HR MIN TEMP:  43; 6HR MAX TEMP:  49;

$$

AZZ009>014-017-060700-
NORTHEAST ARIZONA

CITY           SKY/WX    TMP DP  RH WIND       PRES   REMARKS
WINSLOW        CLOUDY    43  17  35 NE3       29.93R
6HR MIN TEMP:  43; 6HR MAX TEMP:  52;

SAINT JOHNS    MOCLDY    39  18  42 S6        29.95R WCI  35
6HR MIN TEMP:  38; 6HR MAX TEMP:  51;

WINDOW ROCK    CLOUDY    38   8  29 S6        29.94R WCI  33
6HR MIN TEMP:  36; 6HR MAX TEMP:  46;

SHOW LOW       MOCLDY    34  14  44 S10       29.99S WCI  26
$$

AZZ023-060700-
GREATER PHOENIX AREA

CITY           SKY/WX    TMP DP  RH WIND       PRES   REMARKS
PHOENIX        MOCLDY    52  29  41 E6        29.91R
6HR MIN TEMP:  50; 6HR MAX TEMP:  66;

BUCKEYE        CLEAR     45  27  49 N8        29.92S
LUKE AFB       CLEAR     48  30  50 N7        29.90S
6HR MIN TEMP:  48; 6HR MAX TEMP:  64;

DEER VALLEY    CLEAR     51  23  33 NE8       29.91S
6HR MIN TEMP:  47; 6HR MAX TEMP:  63;

SCOTTSDALE     CLEAR     51  26  37 CALM      29.93R
6HR MIN TEMP:  50; 6HR MAX TEMP:  64;

$$

AZZ027-028-060700-
SOUTHWEST MARICOPA COUNTY AND PINAL COUNTY

CITY           SKY/WX    TMP DP  RH WIND       PRES   REMARKS
CASA GRANDE    NOT AVBL
GILA BEND      FAIR      52  21  30 SE10      29.91R
6HR MIN TEMP:  50; 6HR MAX TEMP:  65;

$$

AZZ503-504-507>509-060700-
SOUTHEAST ARIZONA

CITY           SKY/WX    TMP DP  RH WIND       PRES   REMARKS
TUCSON         CLEAR     49  21  33 VRB5      29.98S
6HR MIN TEMP:  49; 6HR MAX TEMP:  69;

DAVIS-MONTHAN  PTCLDY    47  21  36 S5        29.97R
6HR MIN TEMP:  46; 6HR MAX TEMP:  64;

NOGALES        CLEAR     46  30  53 S6        30.01S
6HR MIN TEMP:  46; 6HR MAX TEMP:  60;

SIERRA VISTA   CLEAR     51  29  42 W7        30.01S
6HR MIN TEMP:  48; 6HR MAX TEMP:  57;

DOUGLAS        CLEAR     46  31  55 E3        30.01R
6HR MIN TEMP:  42; 6HR MAX TEMP:  61;

SAFFORD        PTCLDY    41  17  38 E7        29.94S
6HR MIN TEMP:  40; 6HR MAX TEMP:  58; 6HR PCP: TRACE;

$$

AZZ020-021-025-026-031-060700-
SOUTHWEST ARIZONA

CITY           SKY/WX    TMP DP  RH WIND       PRES   REMARKS
YUMA           PTCLDY    55  42  61 SE3       29.90S
6HR MIN TEMP:  54; 6HR MAX TEMP:  70;

$$

CAZ031-033-041-043-047-048-061-060700-
SOUTHERN CALIFORNIA

CITY           SKY/WX    TMP DP  RH WIND       PRES   REMARKS
DOWNTOWN L.A.  CLOUDY    57  54  89 CALM      29.96R
6HR MIN TEMP:  54; 6HR MAX TEMP:  63;

L.A. AIRPORT   CLOUDY    58  54  86 E5        29.97R
6HR MIN TEMP:  56; 6HR MAX TEMP:  61;

SAN DIEGO      MOCLDY    60  50  69 S9        29.99R
6HR MIN TEMP:  59; 6HR MAX TEMP:  61;

BURBANK        MOCLDY    51  46  83 CALM      29.96R
6HR MIN TEMP:  51; 6HR MAX TEMP:  64;

ONTARIO        MOCLDY    52  51  97 NW5       29.97R FOG
6HR MIN TEMP:  51; 6HR MAX TEMP:  64;

RIVERSIDE      CLOUDY    52  50  93 CALM      29.97S
6HR MIN TEMP:  52; 6HR MAX TEMP:  65;

PALM SPRINGS   CLEAR     53  31  42 CALM      29.91S
6HR MIN TEMP:  51; 6HR MAX TEMP:  66;

EL CENTRO NAS  CLEAR     46  27  47 CALM      29.91R
6HR MIN TEMP:  46; 6HR MAX TEMP:  68;

IMPERIAL       CLEAR     50  37  61 CALM      29.89R
6HR MIN TEMP:  49; 6HR MAX TEMP:  67;

BLYTHE         PTCLDY    47  17  30 N7        29.90R
6HR MIN TEMP:  47; 6HR MAX TEMP:  67;

NEEDLES        MOCLDY    55  15  20 W6        29.89S
6HR MIN TEMP:  54; 6HR MAX TEMP:  66;

$$

NVZ020-UTZ003-060700-
SOUTHERN NEVADA-UTAH

CITY           SKY/WX    TMP DP  RH WIND       PRES   REMARKS
LAS VEGAS      MOCLDY    50  20  30 SW3       29.89R
6HR MIN TEMP:  50; 6HR MAX TEMP:  59;

SALT LAKE CITY PTCLDY    28   7  41 CALM      29.99F
6HR MIN TEMP:  27; 6HR MAX TEMP:  30;

$$

NMZ009-TXZ055-060700-
NEW MEXICO-WEST TEXAS

CITY           SKY/WX    TMP DP  RH WIND       PRES   REMARKS
ALBUQUERQUE    CLOUDY    34  16  47 SE3       29.91R
6HR MIN TEMP:  33; 6HR MAX TEMP:  52;

EL PASO        CLOUDY    57  19  22 W14       29.93R
6HR MIN TEMP:  53; 6HR MAX TEMP:  61;

$$


........................KEY........................
SKY/WX - SKY CONDITION/WEATHER
TMP    - TEMPERATURE IN FAHRENHEIT
DP     - DEW POINT IN FAHRENHEIT
RH     - RELATIVE HUMIDITY IN PERCENT
WIND   - DIRECTION AND SPEED IN MILES PER HOUR (MPH)
VRB    - VARIABLE WIND DIRECTION
PRES   - MEAN SEA LEVEL PRESSURE IN INCHES OF MERCURY
         F - FALLING PRESSURE   R - RISING PRESSURE
         S - STEADY PRESSURE
VSB    - VISIBILITY IN MILES
HX     - HEAT INDEX IN FAHRENHEIT
WCI    - WIND CHILL INDEX IN FAHRENHEIT
TC     - TEMPERATURE IN CELSIUS WHICH IS ALSO KNOWN AS
         TEMPERATURE IN CENTIGRADE
AFB    - AIR FORCE BASE
         LUKE AFB IS LUKE AIR FORCE BASE
         DAVIS-MONTHAN IS DAVIS-MONTHAN AIR FORCE BASE
NAS    - NAVAL AIR STATION
         EL CENTRO NAS IS EL CENTRO NAVAL AIR STATION
N/A    - NOT AVAILABLE





USA.gov is the U.S. government's official web portal to all federal, state and local government web resources and services.